Time,TemperatureF,DewpointF,PressureIn,WindDirection,WindDirectionDegrees,WindSpeedMPH,WindSpeedGustMPH,Humidity,HourlyPrecipIn,Conditions,Clouds,dailyrainin,SoftwareType,DateUTC
2013-11-12 00:10:00,31.9,31.0,30.29,SSW,201,0.0,0.0,98,0.00,,,0.00,weatherlink.com 1.10,2013-11-12 08:10:00,
2013-11-12 00:25:00,31.9,31.0,30.29,SSW,201,0.0,0.0,98,0.00,,,0.00,weatherlink.com 1.10,2013-11-12 08:25:00,
2013-11-12 00:40:00,31.7,31.0,30.29,SSW,201,0.0,0.0,98,0.00,,,0.00,weatherlink.com 1.10,2013-11-12 08:40:00,
2013-11-12 00:55:00,31.5,31.0,30.29,SSW,201,0.0,0.0,98,0.00,,,0.00,weatherlink.com 1.10,2013-11-12 08:55:00,
2013-11-12 01:10:00,31.6,31.0,30.28,SSW,201,0.0,0.0,98,0.00,,,0.00,weatherlink.com 1.10,2013-11-12 09:10:00,
2013-11-12 01:25:00,31.4,31.0,30.28,SSW,201,0.0,0.0,98,0.00,,,0.00,weatherlink.com 1.10,2013-11-12 09:25:00,
2013-11-12 01:40:00,31.2,31.0,30.28,SSW,201,0.0,0.0,98,0.00,,,0.00,weatherlink.com 1.10,2013-11-12 09:40:00,
2013-11-12 01:55:00,30.9,30.0,30.27,SSW,201,0.0,0.0,98,0.00,,,0.00,weatherlink.com 1.10,2013-11-12 09:55:00,
2013-11-12 02:10:00,30.9,30.0,30.27,SSW,201,0.0,0.0,98,0.00,,,0.00,weatherlink.com 1.10,2013-11-12 10:10:00,
2013-11-12 02:25:00,30.9,30.0,30.27,SSW,202,0.0,0.0,98,0.00,,,0.00,weatherlink.com 1.10,2013-11-12 10:25:00,
2013-11-12 02:40:00,30.9,30.0,30.27,SSW,201,0.0,0.0,98,0.00,,,0.00,weatherlink.com 1.10,2013-11-12 10:40:00,
2013-11-12 02:55:00,31.0,31.0,30.27,SSW,201,0.0,0.0,98,0.00,,,0.00,weatherlink.com 1.10,2013-11-12 10:55:00,
2013-11-12 03:10:00,30.9,30.0,30.27,SSW,201,0.0,0.0,98,0.00,,,0.00,weatherlink.com 1.10,2013-11-12 11:10:00,
2013-11-12 03:25:00,31.0,31.0,30.27,West,281,0.0,1.0,98,0.00,,,0.00,weatherlink.com 1.10,2013-11-12 11:25:00,
2013-11-12 03:40:00,31.0,31.0,30.27,WNW,283,0.0,0.0,98,0.00,,,0.00,weatherlink.com 1.10,2013-11-12 11:40:00,
2013-11-12 03:55:00,30.7,30.0,30.28,WNW,282,0.0,0.0,98,0.00,,,0.00,weatherlink.com 1.10,2013-11-12 11:55:00,
2013-11-12 04:10:00,30.7,30.0,30.28,SE,135,0.0,0.0,98,0.00,,,0.00,weatherlink.com 1.10,2013-11-12 12:10:00,
2013-11-12 04:25:00,30.4,30.0,30.27,SE,135,0.0,0.0,98,0.00,,,0.00,weatherlink.com 1.10,2013-11-12 12:25:00,
2013-11-12 04:40:00,30.3,30.0,30.27,SE,134,0.0,0.0,98,0.00,,,0.00,weatherlink.com 1.10,2013-11-12 12:40:00,
2013-11-12 04:55:00,30.2,30.0,30.28,ESE,122,0.0,1.0,98,0.00,,,0.00,weatherlink.com 1.10,2013-11-12 12:55:00,
2013-11-12 05:10:00,30.3,30.0,30.28,ESE,122,0.0,0.0,98,0.00,,,0.00,weatherlink.com 1.10,2013-11-12 13:10:00,
2013-11-12 05:25:00,30.6,30.0,30.28,SSW,211,0.0,1.0,98,0.00,,,0.00,weatherlink.com 1.10,2013-11-12 13:25:00,
2013-11-12 05:40:00,30.6,30.0,30.28,East,96,0.0,0.0,98,0.00,,,0.00,weatherlink.com 1.10,2013-11-12 13:40:00,
2013-11-12 05:55:00,30.7,30.0,30.29,SE,129,0.0,0.0,98,0.00,,,0.00,weatherlink.com 1.10,2013-11-12 13:55:00,
2013-11-12 06:10:00,30.5,30.0,30.28,South,184,0.0,0.0,98,0.00,,,0.00,weatherlink.com 1.10,2013-11-12 14:10:00,
2013-11-12 06:25:00,30.2,30.0,30.29,ESE,116,0.0,0.0,98,0.00,,,0.00,weatherlink.com 1.10,2013-11-12 14:25:00,
2013-11-12 06:40:00,30.2,30.0,30.29,SE,136,0.0,1.0,98,0.00,,,0.00,weatherlink.com 1.10,2013-11-12 14:40:00,
2013-11-12 06:55:00,29.9,29.0,30.29,South,191,0.0,0.0,98,0.00,,,0.00,weatherlink.com 1.10,2013-11-12 14:55:00,
2013-11-12 07:10:00,30.0,30.0,30.30,East,96,0.0,0.0,98,0.00,,,0.00,weatherlink.com 1.10,2013-11-12 15:10:00,
2013-11-12 07:25:00,30.2,30.0,30.31,ESE,108,0.0,1.0,98,0.00,,,0.00,weatherlink.com 1.10,2013-11-12 15:25:00,
2013-11-12 07:40:00,30.7,30.0,30.32,ESE,107,0.0,0.0,98,0.00,,,0.00,weatherlink.com 1.10,2013-11-12 15:40:00,
2013-11-12 07:55:00,31.8,31.0,30.33,ESE,107,0.0,1.0,98,0.00,,,0.00,weatherlink.com 1.10,2013-11-12 15:55:00,
2013-11-12 08:10:00,31.8,31.0,30.34,ESE,113,0.0,0.0,98,0.00,,,0.00,weatherlink.com 1.10,2013-11-12 16:10:00,
2013-11-12 08:25:00,32.6,32.0,30.34,ESE,113,0.0,0.0,98,0.00,,,0.00,weatherlink.com 1.10,2013-11-12 16:25:00,
2013-11-12 08:40:00,33.7,33.0,30.34,SE,142,0.0,0.0,98,0.00,,,0.00,weatherlink.com 1.10,2013-11-12 16:40:00,
2013-11-12 08:55:00,34.6,34.0,30.34,SE,142,0.0,0.0,98,0.00,,,0.00,weatherlink.com 1.10,2013-11-12 16:55:00,
2013-11-12 09:11:00,36.1,36.0,30.34,ESE,115,0.0,0.0,98,0.00,,,0.00,weatherlink.com 1.10,2013-11-12 17:11:00,
2013-11-12 09:26:00,37.5,37.0,30.34,ESE,115,0.0,0.0,98,0.00,,,0.00,weatherlink.com 1.10,2013-11-12 17:26:00,
2013-11-12 09:41:00,38.7,38.0,30.35,ESE,113,0.0,0.0,98,0.00,,,0.00,weatherlink.com 1.10,2013-11-12 17:41:00,
2013-11-12 09:56:00,39.2,39.0,30.36,ESE,113,0.0,0.0,98,0.00,,,0.00,weatherlink.com 1.10,2013-11-12 17:56:00,
2013-11-12 10:11:00,41.7,41.0,30.35,ESE,113,0.0,0.0,98,0.00,,,0.00,weatherlink.com 1.10,2013-11-12 18:11:00,
2013-11-12 10:26:00,43.0,42.0,30.36,ESE,113,0.0,0.0,96,0.00,,,0.00,weatherlink.com 1.10,2013-11-12 18:26:00,
2013-11-12 10:41:00,43.9,43.0,30.37,East,99,2.0,2.0,95,0.01,,,0.01,weatherlink.com 1.10,2013-11-12 18:41:00,
2013-11-12 10:56:00,43.5,42.0,30.36,ESE,113,0.0,2.0,94,0.01,,,0.01,weatherlink.com 1.10,2013-11-12 18:56:00,
2013-11-12 11:11:00,44.2,43.0,30.36,ESE,110,0.0,2.0,94,0.01,,,0.01,weatherlink.com 1.10,2013-11-12 19:11:00,
2013-11-12 11:26:00,45.5,43.0,30.36,North,1,0.0,2.0,92,0.01,,,0.01,weatherlink.com 1.10,2013-11-12 19:26:00,
2013-11-12 11:41:00,46.3,44.0,30.36,East,81,0.0,0.0,90,0.00,,,0.01,weatherlink.com 1.10,2013-11-12 19:41:00,
2013-11-12 11:56:00,46.5,44.0,30.36,ESE,114,0.0,1.0,89,0.00,,,0.01,weatherlink.com 1.10,2013-11-12 19:56:00,
2013-11-12 12:11:00,46.8,44.0,30.35,West,280,0.0,1.0,90,0.00,,,0.01,weatherlink.com 1.10,2013-11-12 20:11:00,
2013-11-12 12:26:00,46.8,44.0,30.35,West,280,0.0,0.0,89,0.00,,,0.01,weatherlink.com 1.10,2013-11-12 20:26:00,
2013-11-12 12:41:00,47.1,44.0,30.34,North,5,0.0,1.0,90,0.00,,,0.01,weatherlink.com 1.10,2013-11-12 20:41:00,
2013-11-12 12:56:00,47.5,44.0,30.34,NNE,12,0.0,0.0,88,0.00,,,0.01,weatherlink.com 1.10,2013-11-12 20:56:00,
2013-11-12 13:11:00,47.6,44.0,30.34,NE,37,0.0,0.0,88,0.00,,,0.01,weatherlink.com 1.10,2013-11-12 21:11:00,
2013-11-12 13:26:00,47.6,45.0,30.34,NE,37,0.0,0.0,89,0.00,,,0.01,weatherlink.com 1.10,2013-11-12 21:26:00,
2013-11-12 13:41:00,46.4,45.0,30.35,West,276,0.0,1.0,93,0.00,,,0.01,weatherlink.com 1.10,2013-11-12 21:41:00,
2013-11-12 13:56:00,46.1,45.0,30.35,ENE,77,1.0,1.0,94,0.00,,,0.01,weatherlink.com 1.10,2013-11-12 21:56:00,
2013-11-12 14:11:00,45.7,44.0,30.35,WNW,293,2.0,3.0,95,0.00,,,0.01,weatherlink.com 1.10,2013-11-12 22:11:00,
2013-11-12 14:26:00,45.7,44.0,30.34,ESE,103,0.0,1.0,95,0.00,,,0.01,weatherlink.com 1.10,2013-11-12 22:26:00,
2013-11-12 14:41:00,45.2,44.0,30.33,ENE,77,0.0,4.0,95,0.00,,,0.01,weatherlink.com 1.10,2013-11-12 22:41:00,
2013-11-12 14:56:00,45.7,44.0,30.33,SSW,194,0.0,2.0,95,0.00,,,0.01,weatherlink.com 1.10,2013-11-12 22:56:00,
2013-11-12 15:11:00,45.5,44.0,30.34,North,356,0.0,1.0,95,0.00,,,0.01,weatherlink.com 1.10,2013-11-12 23:11:00,
2013-11-12 15:26:00,44.8,44.0,30.33,ESE,107,1.0,2.0,96,0.00,,,0.01,weatherlink.com 1.10,2013-11-12 23:26:00,
2013-11-12 15:41:00,45.2,44.0,30.33,NE,44,0.0,3.0,96,0.00,,,0.01,weatherlink.com 1.10,2013-11-12 23:41:00,
2013-11-12 15:56:00,44.9,44.0,30.34,SW,221,0.0,2.0,96,0.00,,,0.01,weatherlink.com 1.10,2013-11-12 23:56:00,
2013-11-12 16:11:00,44.5,44.0,30.35,North,359,0.0,1.0,96,0.00,,,0.01,weatherlink.com 1.10,2013-11-13 00:11:00,
2013-11-12 16:26:00,44.0,43.0,30.34,SW,224,0.0,1.0,96,0.00,,,0.01,weatherlink.com 1.10,2013-11-13 00:26:00,
2013-11-12 16:41:00,43.7,43.0,30.34,SW,236,0.0,1.0,96,0.00,,,0.01,weatherlink.com 1.10,2013-11-13 00:41:00,
2013-11-12 16:56:00,43.6,43.0,30.34,East,96,0.0,1.0,97,0.01,,,0.02,weatherlink.com 1.10,2013-11-13 00:56:00,
2013-11-12 17:11:00,44.2,43.0,30.34,NNE,20,0.0,4.0,97,0.01,,,0.02,weatherlink.com 1.10,2013-11-13 01:11:00,
2013-11-12 17:26:00,43.6,43.0,30.35,SE,124,0.0,0.0,97,0.01,,,0.02,weatherlink.com 1.10,2013-11-13 01:26:00,
2013-11-12 17:41:00,43.3,43.0,30.36,West,259,0.0,1.0,97,0.01,,,0.02,weatherlink.com 1.10,2013-11-13 01:41:00,
2013-11-12 17:56:00,43.0,42.0,30.36,West,259,0.0,0.0,97,0.00,,,0.02,weatherlink.com 1.10,2013-11-13 01:56:00,
2013-11-12 18:11:00,42.8,42.0,30.36,West,276,0.0,1.0,98,0.00,,,0.02,weatherlink.com 1.10,2013-11-13 02:11:00,
2013-11-12 18:26:00,42.6,42.0,30.36,West,277,0.0,0.0,97,0.00,,,0.02,weatherlink.com 1.10,2013-11-13 02:26:00,
2013-11-12 18:41:00,42.3,42.0,30.37,West,276,0.0,0.0,98,0.00,,,0.02,weatherlink.com 1.10,2013-11-13 02:41:00,
2013-11-12 18:56:00,42.3,42.0,30.37,West,277,0.0,0.0,98,0.01,,,0.03,weatherlink.com 1.10,2013-11-13 02:56:00,
2013-11-12 19:11:00,42.2,42.0,30.37,WSW,251,0.0,0.0,98,0.01,,,0.03,weatherlink.com 1.10,2013-11-13 03:11:00,
2013-11-12 19:26:00,42.0,42.0,30.37,ESE,122,0.0,1.0,98,0.01,,,0.03,weatherlink.com 1.10,2013-11-13 03:26:00,
2013-11-12 19:41:00,41.9,41.0,30.38,SE,129,0.0,0.0,98,0.01,,,0.03,weatherlink.com 1.10,2013-11-13 03:41:00,
2013-11-12 19:56:00,41.6,41.0,30.38,SE,129,0.0,0.0,98,0.00,,,0.03,weatherlink.com 1.10,2013-11-13 03:56:00,
2013-11-12 20:12:00,41.6,41.0,30.38,SE,129,0.0,0.0,98,0.00,,,0.03,weatherlink.com 1.10,2013-11-13 04:12:00,
2013-11-12 20:27:00,41.5,41.0,30.38,SE,129,0.0,0.0,98,0.00,,,0.03,weatherlink.com 1.10,2013-11-13 04:27:00,
2013-11-12 20:42:00,41.3,41.0,30.38,North,6,0.0,1.0,98,0.01,,,0.04,weatherlink.com 1.10,2013-11-13 04:42:00,
2013-11-12 20:57:00,41.3,41.0,30.38,North,5,0.0,0.0,98,0.01,,,0.04,weatherlink.com 1.10,2013-11-13 04:57:00,
2013-11-12 21:12:00,41.4,41.0,30.38,North,6,0.0,0.0,98,0.01,,,0.04,weatherlink.com 1.10,2013-11-13 05:12:00,
2013-11-12 21:27:00,41.2,41.0,30.38,North,5,0.0,0.0,98,0.01,,,0.04,weatherlink.com 1.10,2013-11-13 05:27:00,
2013-11-12 21:42:00,41.0,41.0,30.38,North,6,0.0,0.0,98,0.00,,,0.04,weatherlink.com 1.10,2013-11-13 05:42:00,
2013-11-12 21:57:00,40.9,40.0,30.38,North,5,0.0,0.0,98,0.00,,,0.04,weatherlink.com 1.10,2013-11-13 05:57:00,
2013-11-12 22:12:00,40.9,40.0,30.37,North,5,0.0,0.0,98,0.00,,,0.04,weatherlink.com 1.10,2013-11-13 06:12:00,
2013-11-12 22:27:00,40.8,40.0,30.38,North,5,0.0,0.0,98,0.00,,,0.04,weatherlink.com 1.10,2013-11-13 06:27:00,
2013-11-12 22:42:00,40.7,40.0,30.38,North,5,0.0,0.0,98,0.00,,,0.04,weatherlink.com 1.10,2013-11-13 06:42:00,
2013-11-12 22:57:00,40.3,40.0,30.38,North,6,0.0,0.0,98,0.00,,,0.04,weatherlink.com 1.10,2013-11-13 06:57:00,
2013-11-12 23:12:00,40.5,40.0,30.38,North,5,0.0,0.0,98,0.00,,,0.04,weatherlink.com 1.10,2013-11-13 07:12:00,
2013-11-12 23:27:00,40.6,40.0,30.38,North,6,0.0,0.0,98,0.00,,,0.04,weatherlink.com 1.10,2013-11-13 07:27:00,
2013-11-12 23:42:00,40.1,40.0,30.38,North,5,0.0,0.0,98,0.00,,,0.04,weatherlink.com 1.10,2013-11-13 07:42:00,
2013-11-12 23:57:00,40.0,40.0,30.39,North,5,0.0,0.0,98,0.00,,,0.04,weatherlink.com 1.10,2013-11-13 07:57:00,